User: anonymous   Login
Location: Unspecified
(0.0000°N, 0.0000°E)
Time: 21:51:14
(UTC+00:00)
Language:

DUCHIFAT 1 - Orbit

View from above orbital plane
View from above orbital plane
View from above satellite
View from above satellite

Ground track
Ground track

The orbit data is extracted from the following two-line orbital elements,

1 40021U 14033M   19231.77016730  .00000097  00000-0  15768-4 0  9992
2 40021  97.9226 156.5689 0012150 199.4784 160.5971 14.90660663280791
Epoch (UTC): 19 August 2019 18:29:02
Eccentricity: 0.0012150
inclination: 97.9226°
perigee height: 587 km
apogee height: 604 km
right ascension of ascending node: 156.5689°
argument of perigee: 199.4784°
revolutions per day: 14.90660663
mean anomaly at epoch: 160.5971°
orbit number at epoch: 28079

The dashed part of the orbit path shows where the satellite is in the earth's shadow,  

DLR